Vorticity
8 6 7 7 7 7 7 8 8 7 7 7 6 6 6 6 6 6 6 5 5 5 5 4 3 5 4 13 10 -0 8 6 4 9 9 9 5 5 1 6 9 17 8 9 6 8 7
6 8 8 6 6 6 7 6 7 8 7 7 6 6 6 6 6 6 6 5 5 5 5 5 4 5 5 15 11 4 8 6 5 10 8 7 6 4 9 5 16 -1 5 7 9 11 11
7 6 6 7 8 7 6 6 7 6 6 7 7 6 6 6 6 6 5 5 5 5 5 6 6 1 5 14 -2 8 8 7 6 9 7 6 5 6 4 12 -5 11 10 10 3 1 -9
3 4 6 6 6 7 7 8 6 6 6 6 6 7 7 6 6 5 5 5 5 4 5 3 9 6 -3 19 -1 7 9 5 9 7 8 8 6 6 8 6 17 18 27 8 -8 16 12
4 3 3 4 5 5 6 7 7 7 7 6 5 6 6 6 5 5 6 6 5 5 4 10 -1 5 18 8 1 7 10 7 9 6 7 7 7 6 7 18 23 1 -11 8 23 3 13
6 4 3 3 3 3 5 5 6 7 8 8 7 6 6 5 5 6 6 6 6 4 10 -3 23 3 -3 15 2 6 4 14 4 9 6 6 8 4 18 3 -6 -16 5 4 2 -12 5
4 6 6 4 3 3 3 3 5 6 6 7 7 8 6 6 6 6 8 7 6 10 1 10 -3 10 14 8 2 4 13 7 10 7 7 11 4 31 3 -1 1 7 6 4 13 37 7
10 10 10 7 5 3 4 3 3 3 5 6 6 7 7 7 7 7 6 5 6 3 9 10 5 17 25 0 2 9 9 8 10 8 8 5 42 -2 1 2 8 14 11 10 8 5 1
6 6 7 10 10 10 6 4 4 3 3 4 5 5 6 6 6 6 4 6 6 6 8 13 11 22 2 3 -1 8 10 8 6 10 4 13 22 -2 -2 12 15 17 9 5 4 6 16
6 5 5 5 5 4 11 7 7 6 3 3 3 5 5 5 6 6 5 5 6 8 24 21 18 14 2 1 20 -1 10 8 7 1 5 19 -4 -0 11 20 15 -1 6 12 -3 18 4
10 8 7 6 5 5 6 5 9 8 8 6 4 3 5 5 5 5 5 6 6 11 19 11 15 -2 -2 5 0 7 7 3 7 4 7 -14 16 7 13 9 7 -9 7 1 24 16 20
10 10 8 8 9 6 3 4 6 9 6 7 8 5 6 7 6 7 6 6 7 32 12 5 -4 5 -9 6 2 11 13 9 8 7 3 25 -13 28 -6 10 8 14 3 33 38 34 21
11 10 9 8 8 10 7 5 6 3 20 12 8 8 5 7 5 6 7 7 23 10 2 19 17 -5 1 2 14 10 5 9 11 23 3 3 38 20 7 9 11 2 14 12 11 0 -5
11 11 9 9 8 10 11 9 7 12 -12 9 13 16 10 7 7 7 8 13 11 14 7 -10 -13 6 -0 19 15 5 1 7 19 17 7 19 12 14 -29 13 -2 22 18 -3 15 -1 -18
11 11 12 11 10 8 13 13 10 11 -5 -4 17 -5 16 13 6 9 9 11 -25 6 21 8 6 8 24 5 6 14 15 28 8 4 8 8 1 -30 40 -13 28 -1 6 -10 15 28 29
15 15 14 13 11 13 13 15 16 12 9 25 -16 -6 17 12 16 6 8 -1 -9 23 7 -1 9 5 -4 11 10 19 19 6 10 4 6 -3 10 26 2 13 16 16 -0 19 12 8 17
22 18 17 15 16 14 13 12 17 17 15 12 2 5 3 9 3 11 -4 -1 7 5 -5 -9 -2 -11 11 4 4 4 10 -7 22 7 12 3 25 -32 11 4 4 14 12 1 25 7 1
17 15 15 16 18 15 11 15 17 30 24 7 -9 -2 7 6 10 10 6 4 15 2 9 9 12 14 -2 5 10 19 0 10 -3 6 4 16 8 1 -4 51 31 10 0 3 14 -14 -20
15 15 14 12 18 26 24 17 11 5 16 20 18 -2 -8 2 -3 7 11 6 14 5 -7 8 5 14 14 3 11 16 4 11 8 10 -1 -5 7 13 10 7 8 -1 0 5 11 22 2
12 27 34 17 12 13 15 19 20 13 11 17 20 -6 38 15 -4 9 30 5 13 25 15 1 7 3 4 7 9 -13 -6 -4 -10 17 11 10 12 -2 -30 -32 -15 4 13 21 22 10 3
6 -4 -3 17 25 8 5 8 10 13 14 4 10 31 -27 23 17 5 5 -5 10 18 6 7 15 7 3 9 6 6 17 22 10 4 16 19 -1 8 12 5 33 25 2 18 24 12 14
8 1 -0 -4 0 11 15 13 18 12 11 10 6 20 -50 54 27 7 -3 6 17 2 6 14 6 2 3 5 4 -7 -5 4 10 8 10 2 5 -8 11 51 -8 6 41 5 6 22 15
-3 -2 -3 6 7 7 3 11 12 11 11 11 14 6 11 24 25 -25 2 14 15 29 12 14 9 12 18 21 25 14 3 6 -1 2 6 10 9 -2 14 -18 35 34 -24 8 18 11 10
12 15 14 4 4 8 7 8 10 11 16 -5 3 14 18 4 -17 -10 41 -11 -18 -4 12 15 19 10 3 8 6 0 2 10 5 7 13 4 5 16 -7 39 17 -13 13 13 29 -21 5
16 12 17 16 10 7 7 6 1 -6 25 12 7 -20 23 17 12 -5 5 11 32 2 12 6 19 28 27 6 15 26 24 32 26 26 22 17 12 3 1 5 -4 2 -6 8 17 8 -0
3 12 21 19 20 13 8 5 7 1 10 22 19 21 -8 31 -32 54 16 23 18 -0 15 14 10 -1 6 14 17 2 1 1 14 13 19 13 15 -14 14 10 4 -8 -5 10 26 27 -7
6 4 5 14 22 23 17 13 9 14 10 9 27 -2 -0 41 12 -10 22 5 -3 -9 15 -1 42 4 34 20 6 -1 1 4 2 6 25 8 16 2 7 -2 13 21 -10 15 18 -28 12
1 9 3 3 7 14 20 18 15 11 15 19 29 11 1 -1 6 -2 16 -0 10 -2 14 31 34 17 11 -12 6 10 14 11 12 -5 9 5 13 11 19 3 22 -11 12 12 1 10 12
6 2 13 3 -0 5 9 7 10 14 16 28 23 -6 -6 74 28 51 12 12 25 17 -34 22 10 60 -6 -1 5 29 3 11 3 3 20 7 -1 -3 -8 -4 3 3 13 19 20 17 12
Height
3167 3166 3166 3166 3166 3167 3167 3167 3166 3165 3165 3165 3164 3164 3164 3163 3163 3163 3162 3162 3161 3160 3158 3156 3154 3151 3149 3146 3144 3141 3138 3135 3133 3130 3127 3125 3124 3122 3120 3119 3115 3112 3111 3108 3106 3103 3100
3166 3166 3165 3164 3164 3165 3164 3164 3164 3164 3164 3163 3163 3162 3162 3162 3162 3161 3161 3160 3159 3158 3156 3155 3153 3150 3147 3145 3142 3140 3136 3133 3131 3128 3125 3123 3121 3119 3118 3116 3112 3108 3105 3102 3100 3098 3093
3165 3164 3164 3164 3163 3163 3162 3162 3162 3161 3161 3162 3161 3161 3161 3161 3160 3160 3159 3158 3157 3156 3154 3152 3150 3148 3145 3144 3140 3138 3134 3131 3128 3126 3123 3121 3119 3117 3114 3111 3108 3104 3098 3096 3094 3092 3088
3162 3162 3162 3161 3161 3161 3161 3161 3159 3160 3160 3159 3159 3159 3159 3159 3158 3157 3156 3156 3155 3153 3152 3150 3147 3145 3143 3140 3138 3136 3133 3130 3126 3124 3121 3119 3116 3113 3111 3107 3103 3099 3095 3091 3088 3086 3082
3158 3158 3158 3159 3158 3157 3157 3157 3158 3157 3157 3157 3156 3157 3157 3156 3156 3155 3154 3153 3152 3151 3149 3147 3145 3142 3141 3139 3136 3133 3130 3128 3125 3122 3119 3116 3113 3110 3106 3103 3100 3096 3092 3087 3082 3081 3077
3153 3154 3154 3154 3155 3155 3154 3154 3154 3154 3155 3154 3154 3154 3153 3153 3153 3152 3151 3151 3149 3148 3147 3145 3141 3142 3137 3137 3134 3131 3128 3125 3123 3120 3118 3114 3111 3107 3104 3101 3099 3094 3089 3083 3081 3079 3074
3148 3148 3149 3149 3149 3150 3151 3150 3151 3150 3150 3151 3151 3151 3151 3150 3149 3149 3149 3148 3149 3147 3144 3142 3140 3137 3134 3134 3132 3130 3126 3123 3121 3119 3115 3111 3109 3105 3102 3098 3095 3090 3086 3078 3075 3074 3067
3140 3141 3142 3143 3144 3144 3144 3145 3146 3146 3147 3147 3147 3147 3147 3147 3146 3146 3146 3145 3144 3143 3140 3138 3135 3133 3131 3131 3129 3127 3124 3122 3118 3116 3112 3110 3105 3102 3099 3095 3090 3086 3081 3075 3069 3067 3065
3134 3134 3135 3136 3138 3139 3139 3140 3140 3140 3142 3142 3143 3143 3143 3144 3144 3143 3142 3142 3140 3138 3136 3133 3130 3129 3129 3129 3127 3124 3122 3118 3115 3112 3110 3107 3104 3100 3096 3092 3086 3083 3079 3073 3069 3063 3060
3128 3128 3129 3129 3130 3131 3133 3133 3134 3135 3136 3137 3138 3139 3138 3139 3142 3139 3139 3138 3137 3135 3132 3131 3127 3126 3127 3125 3124 3121 3118 3117 3112 3109 3106 3102 3101 3098 3093 3088 3084 3079 3075 3070 3065 3062 3056
3120 3120 3122 3123 3123 3124 3125 3126 3128 3128 3130 3131 3132 3134 3135 3134 3135 3135 3136 3135 3135 3135 3133 3128 3125 3125 3124 3125 3122 3118 3115 3111 3109 3106 3105 3102 3097 3094 3090 3086 3081 3077 3071 3065 3059 3054 3051
3111 3112 3112 3114 3115 3116 3117 3119 3120 3121 3122 3124 3126 3129 3129 3130 3130 3131 3131 3131 3133 3136 3127 3123 3121 3121 3121 3119 3117 3114 3112 3110 3106 3101 3099 3097 3094 3090 3086 3083 3079 3073 3066 3059 3052 3050 3047
3101 3103 3104 3105 3106 3107 3108 3109 3111 3113 3114 3116 3118 3121 3124 3124 3126 3126 3127 3128 3132 3126 3124 3120 3118 3119 3118 3116 3113 3111 3109 3106 3105 3100 3095 3093 3089 3087 3084 3079 3075 3072 3068 3059 3049 3045 3038
3092 3092 3093 3094 3095 3097 3099 3101 3102 3105 3106 3109 3111 3113 3117 3119 3119 3121 3123 3126 3124 3117 3116 3114 3115 3115 3114 3112 3110 3108 3105 3102 3100 3097 3093 3090 3085 3085 3083 3079 3075 3070 3069 3066 3050 3041 3032
3081 3081 3083 3083 3084 3086 3088 3090 3092 3095 3098 3101 3102 3104 3109 3114 3114 3116 3118 3116 3110 3112 3112 3112 3111 3110 3110 3109 3109 3105 3102 3099 3098 3095 3095 3091 3084 3082 3079 3076 3074 3067 3065 3062 3052 3043 3033
3070 3070 3071 3072 3073 3075 3077 3078 3081 3084 3088 3091 3095 3097 3099 3105 3106 3109 3110 3102 3101 3104 3107 3108 3107 3108 3106 3106 3105 3103 3100 3097 3095 3093 3091 3088 3082 3077 3075 3072 3069 3066 3063 3058 3054 3039 3025
3060 3060 3060 3062 3063 3064 3065 3068 3071 3074 3077 3082 3088 3088 3089 3097 3098 3099 3094 3090 3094 3098 3102 3104 3102 3102 3103 3102 3101 3098 3096 3095 3092 3091 3089 3086 3084 3076 3072 3069 3066 3064 3060 3057 3052 3045 3033
3050 3050 3050 3051 3052 3053 3055 3058 3061 3064 3069 3072 3078 3080 3081 3086 3090 3084 3079 3082 3087 3089 3094 3096 3096 3097 3097 3098 3096 3094 3091 3091 3089 3088 3086 3083 3079 3072 3067 3061 3059 3058 3057 3055 3050 3041 3036
3042 3043 3043 3043 3045 3047 3049 3052 3055 3058 3060 3064 3068 3071 3072 3076 3073 3071 3072 3074 3076 3081 3085 3090 3089 3090 3091 3092 3094 3088 3086 3087 3085 3085 3083 3080 3076 3072 3063 3062 3058 3056 3054 3051 3047 3040 3031
3037 3038 3038 3039 3040 3042 3044 3046 3049 3052 3056 3059 3059 3063 3063 3059 3060 3064 3067 3066 3066 3073 3077 3082 3084 3083 3085 3085 3087 3084 3082 3083 3081 3080 3079 3076 3072 3071 3066 3058 3057 3050 3045 3045 3043 3037 3025
3033 3034 3034 3035 3035 3038 3040 3041 3044 3046 3050 3052 3051 3049 3053 3052 3049 3055 3061 3061 3061 3065 3070 3075 3074 3073 3080 3081 3080 3078 3078 3078 3077 3076 3074 3072 3066 3064 3057 3052 3048 3043 3038 3035 3034 3028 3025
3028 3029 3030 3031 3032 3032 3034 3036 3038 3040 3043 3045 3044 3045 3047 3048 3051 3050 3050 3049 3054 3057 3064 3065 3067 3071 3075 3072 3076 3077 3074 3073 3072 3070 3069 3067 3062 3058 3048 3046 3043 3036 3034 3032 3028 3023 3016
3022 3023 3024 3026 3026 3027 3028 3030 3031 3034 3035 3036 3039 3038 3041 3038 3039 3042 3039 3040 3045 3053 3053 3058 3062 3066 3064 3067 3071 3071 3068 3067 3066 3064 3064 3062 3059 3056 3047 3043 3037 3034 3032 3028 3024 3021 3015
3015 3016 3017 3019 3020 3020 3021 3023 3025 3025 3027 3027 3029 3031 3030 3024 3027 3026 3030 3035 3035 3041 3047 3053 3054 3057 3058 3063 3063 3063 3062 3061 3059 3058 3058 3056 3056 3055 3047 3042 3037 3032 3029 3025 3021 3018 3013
3009 3009 3010 3010 3012 3013 3014 3015 3017 3017 3018 3017 3019 3021 3017 3013 3014 3016 3017 3021 3027 3032 3036 3040 3044 3049 3051 3055 3057 3056 3055 3054 3050 3050 3050 3051 3052 3052 3049 3043 3034 3029 3027 3023 3019 3017 3012
3003 3003 3003 3003 3003 3003 3005 3006 3006 3006 3007 3006 3007 3009 3009 3002 2995 3002 3006 3012 3013 3017 3025 3025 3034 3041 3042 3047 3049 3047 3047 3046 3045 3044 3044 3046 3047 3049 3047 3044 3033 3028 3026 3021 3017 3015 3012
2996 2997 2997 2996 2996 2995 2995 2995 2995 2995 2995 2995 2992 2998 2997 2990 2987 2992 2992 2998 3005 3011 3014 3016 3021 3029 3034 3038 3040 3039 3041 3040 3040 3039 3039 3041 3041 3042 3044 3041 3028 3027 3024 3020 3020 3019 3011
2989 2989 2990 2990 2990 2988 2987 2986 2986 2984 2984 2984 2980 2985 2986 2981 2979 2981 2984 2989 2995 2999 3003 3006 3012 3018 3024 3029 3030 3030 3032 3031 3032 3032 3032 3035 3035 3035 3037 3036 3029 3025 3022 3021 3018 3014 3011
2980 2981 2982 2982 2982 2980 2979 2977 2977 2976 2975 2973 2967 2974 2973 2963 2960 2966 2973 2982 2988 2995 2997 2999 3003 3008 3014 3020 3020 3022 3024 3023 3025 3026 3027 3030 3029 3029 3030 3026 3024 3022 3020 3017 3014 3012 3010